Location: Champs
(48.8539°N, 2.6040°E)
Time: 06:04:49
(UTC+00:00)

Meteor 2-10 Rocket - Pass Details

Date: 26 October 2021
Orbit: 733 x 885 km, 81.2° (Epoch: 04 December)

Event Time Altitude Azimuth Distance (km) Brightness Sun altitude
Rises 05:15:15 0° 346° (NNW) 3,203 6.5 -12.4°
Reaches altitude 10° 05:17:37 10° 344° (NNW) 2,263 5.7 -12.0°
Maximum altitude 05:22:38 68° 262° (W) 793 3.4 -11.2°
Drops below altitude 10° 05:27:35 10° 180° (S) 2,233 6.0 -10.4°
Sets 05:29:54 0° 178° (S) 3,158 6.8 -10.0°
